Washington County, Texas, United States
Lat: 30.22N, Lon: 96.44W
Wx Zone: TXZ197
Local Info
Past Weather Observations for Today

NOTE: This archive is for the closest National Weather Service station to Washington County. Information may differ from the station used for current weather conditions.

Click here for Long-term Archive

Time Weather Temperature Dewpoint Humidity Pressure Winds Precip Visibility
21:35
Clear
73°F / 23°C 64°F / 18°C 74% 29.62 in
(1003 mb)
SE 9.2 mph
(SE 15 kph)
- 10SM
21:15
Clear
73°F / 23°C 64°F / 18°C 74% 29.62 in
(1003 mb)
SSE 8.1 mph
(SSE 13 kph)
- 10SM
20:55
Clear
73°F / 23°C 64°F / 18°C 74% 29.62 in
(1003 mb)
SE 4.6 mph
(SE 7 kph)
- 10SM
20:35
Clear
73°F / 23°C 64°F / 18°C 74% 29.62 in
(1003 mb)
SE 4.6 mph
(SE 7 kph)
- 10SM
20:15
Clear
75°F / 24°C 64°F / 18°C 69% 29.62 in
(1003 mb)
SSE 5.8 mph
(SSE 9 kph)
- 10SM
19:55
Clear
77°F / 25°C 66°F / 19°C 69% 29.62 in
(1003 mb)
SSE 6.9 mph
(SSE 11 kph)
- 10SM
19:35
Clear
77°F / 25°C 68°F / 20°C 74% 29.62 in
(1003 mb)
SSE 10.4 mph
(SSE 17 kph)
- 10SM
19:15
Clear
79°F / 26°C 72°F / 22°C 79% 29.62 in
(1003 mb)
SE 8.1 mph
(SE 13 kph)
- 10SM
18:55
Partly Cloudy
81°F / 27°C 72°F / 22°C 74% 29.62 in
(1003 mb)
SE 8.1 mph
(SE 13 kph)
- 7SM
18:35
Clear
81°F / 27°C 72°F / 22°C 74% 29.62 in
(1003 mb)
SE 12.7 mph
(SE 20 kph)
- 10SM
18:15
Clear
82°F / 28°C 72°F / 22°C 70% 29.62 in
(1003 mb)
SE 9.2 mph
(SE 15 kph)
- 10SM
17:55
Clear
82°F / 28°C 73°F / 23°C 74% 29.59 in
(1002 mb)
SE 10.4 mph
(SE 17 kph)
- 7SM
17:35
Clear
82°F / 28°C 72°F / 22°C 70% 29.59 in
(1002 mb)
SE 11.5 mph
(SE 19 kph)
- 10SM
17:15
Clear
84°F / 29°C 72°F / 22°C 66% 29.59 in
(1002 mb)
SE 8.1 mph
(SE 13 kph)
- 10SM
16:55
Clear
84°F / 29°C 72°F / 22°C 66% 29.59 in
(1002 mb)
SSE 10.4 mph
(SSE 17 kph)
- 10SM
16:35
Clear
84°F / 29°C 72°F / 22°C 66% 29.62 in
(1003 mb)
SSE 12.7 mph
(SSE 20 kph)
- 10SM
16:15
Clear
84°F / 29°C 72°F / 22°C 66% 29.62 in
(1003 mb)
SSE 11.5 mph
(SSE 19 kph)
- 7SM
15:55
Clear
Thunder Storms
84°F / 29°C 72°F / 22°C 66% 29.62 in
(1003 mb)
SSE 10.4 mph
(SSE 17 kph)
- 10SM
15:35
Partly Cloudy
82°F / 28°C 73°F / 23°C 74% 29.62 in
(1003 mb)
SSE 10.4 mph
(SSE 17 kph)
- 10SM
15:15
Partly Cloudy
82°F / 28°C 72°F / 22°C 70% 29.65 in
(1004 mb)
SSE 11.5 mph
(SSE 19 kph)
- 10SM
14:55
Partly Cloudy
84°F / 29°C 72°F / 22°C 66% 29.65 in
(1004 mb)
SSE 10.4 mph
(SSE 17 kph)
- 10SM
14:35
Partly Cloudy
84°F / 29°C 73°F / 23°C 70% 29.65 in
(1004 mb)
S 9.2 mph
(S 15 kph)
- 10SM
14:15
Clear
84°F / 29°C 73°F / 23°C 70% 29.65 in
(1004 mb)
SSE 8.1 mph
(SSE 13 kph)
- 10SM
13:55
Clear
82°F / 28°C 73°F / 23°C 74% 29.65 in
(1004 mb)
SE 11.5 mph
(SE 19 kph)
- 10SM
13:35
Partly Cloudy
81°F / 27°C 72°F / 22°C 74% 29.68 in
(1005 mb)
SSE 11.5 mph
(SSE 19 kph)
- 10SM
13:15
Partly Cloudy
81°F / 27°C 73°F / 23°C 79% 29.68 in
(1005 mb)
SSE 16.1 mph
(SSE 26 kph)
- 7SM
12:55
Partly Cloudy
Rain
81°F / 27°C 73°F / 23°C 79% 29.68 in
(1005 mb)
SE 9.2 mph
(SE 15 kph)
- 7SM
12:35
Clear
81°F / 27°C 73°F / 23°C 79% 29.71 in
(1006 mb)
SE 8.1 mph
(SE 13 kph)
- 10SM
12:15
Clear
81°F / 27°C 72°F / 22°C 74% 29.71 in
(1006 mb)
E 11.5 mph
(E 19 kph)
- 10SM
11:55
Partly Cloudy
77°F / 25°C 72°F / 22°C 83% 29.71 in
(1006 mb)
E 9.2 mph
(E 15 kph)
- 7SM
11:35
Partly Cloudy
Light Rain
77°F / 25°C 72°F / 22°C 83% 29.71 in
(1006 mb)
E 9.2 mph
(E 15 kph)
- 7SM
11:15
Clear
Thunder Storms
77°F / 25°C 72°F / 22°C 83% 29.77 in
(1008 mb)
NW 3.5 mph
(NW 6 kph)
- 7SM
10:55
Partly Cloudy
77°F / 25°C 72°F / 22°C 83% 29.74 in
(1007 mb)
NNE 4.6 mph
(NNE 7 kph)
- 10SM
10:35
Overcast
77°F / 25°C 72°F / 22°C 83% 29.77 in
(1008 mb)
N 9.2 mph
(N 15 kph)
- 7SM
10:15
Mostly Cloudy
77°F / 25°C 72°F / 22°C 83% 29.8 in
(1009 mb)
NW 6.9 mph
(NW 11 kph)
- 7SM
09:55
Mostly Cloudy
75°F / 24°C 72°F / 22°C 89% 29.77 in
(1008 mb)
SSE 6.9 mph
(SSE 11 kph)
- 10SM
09:35
Clear
75°F / 24°C 72°F / 22°C 89% 29.74 in
(1007 mb)
SE 3.5 mph
(SE 6 kph)
- 10SM
09:15
Clear
75°F / 24°C 72°F / 22°C 89% 29.74 in
(1007 mb)
Calm - 10SM
08:55
Clear
73°F / 23°C 70°F / 21°C 89% 29.77 in
(1008 mb)
Calm - 10SM
08:35
Clear
73°F / 23°C 70°F / 21°C 89% 29.74 in
(1007 mb)
Calm - 10SM
08:15
Clear
73°F / 23°C 70°F / 21°C 89% 29.74 in
(1007 mb)
Calm - 10SM
07:55
Clear
73°F / 23°C 70°F / 21°C 89% 29.74 in
(1007 mb)
Calm - 10SM
07:35
Clear
72°F / 22°C 70°F / 21°C 94% 29.74 in
(1007 mb)
Calm - 10SM
07:15
Clear
72°F / 22°C 70°F / 21°C 94% 29.74 in
(1007 mb)
NNW 3.5 mph
(NNW 6 kph)
- 10SM
06:55
Partly Cloudy
72°F / 22°C 70°F / 21°C 94% 29.77 in
(1008 mb)
Calm - 10SM
06:35
Overcast
72°F / 22°C 70°F / 21°C 94% 29.77 in
(1008 mb)
Calm - 10SM
06:15
Overcast
72°F / 22°C 70°F / 21°C 94% 29.77 in
(1008 mb)
SSE 3.5 mph
(SSE 6 kph)
- 10SM
05:55
Overcast
72°F / 22°C 68°F / 20°C 88% 29.74 in
(1007 mb)
Calm - 10SM
05:35
Overcast
72°F / 22°C 68°F / 20°C 88% 29.74 in
(1007 mb)
Calm - 10SM
05:15
Overcast
72°F / 22°C 68°F / 20°C 88% 29.74 in
(1007 mb)
SW 4.6 mph
(SW 7 kph)
- 10SM
04:55
Overcast
72°F / 22°C 68°F / 20°C 88% 29.74 in
(1007 mb)
SSE 9.2 mph
(SSE 15 kph)
- 10SM
04:35
Overcast
72°F / 22°C 70°F / 21°C 94% 29.71 in
(1006 mb)
SW 4.6 mph
(SW 7 kph)
- 7SM
04:15
Overcast
72°F / 22°C 70°F / 21°C 94% 29.71 in
(1006 mb)
SW 5.8 mph
(SW 9 kph)
- 7SM
03:55
Overcast
70°F / 21°C 70°F / 21°C 100% 29.71 in
(1006 mb)
SW 5.8 mph
(SW 9 kph)
- 7SM
03:35
Overcast
70°F / 21°C 70°F / 21°C 100% 29.71 in
(1006 mb)
SSE 6.9 mph
(SSE 11 kph)
- 7SM
03:15
Overcast
70°F / 21°C 70°F / 21°C 100% 29.71 in
(1006 mb)
SW 5.8 mph
(SW 9 kph)
- 7SM
02:55
Overcast
Fog And Mist
70°F / 21°C 70°F / 21°C 100% 29.71 in
(1006 mb)
SW 9.2 mph
(SW 15 kph)
- 2 1/2SM
02:35
Overcast
Fog And Mist
70°F / 21°C 70°F / 21°C 100% 29.71 in
(1006 mb)
SSE 10.4 mph
(SSE 17 kph)
- 2SM
02:15
Mostly Cloudy
Fog And Mist
70°F / 21°C 70°F / 21°C 100% 29.71 in
(1006 mb)
S 8.1 mph
(S 13 kph)
- 5SM
01:55
Partly Cloudy
Fog And Mist
70°F / 21°C 70°F / 21°C 100% 29.71 in
(1006 mb)
SSE 3.5 mph
(SSE 6 kph)
- 5SM
01:35
Clear
Fog And Mist
70°F / 21°C 70°F / 21°C 100% 29.71 in
(1006 mb)
S 4.6 mph
(S 7 kph)
- 5SM
01:15
Clear
Fog And Mist
70°F / 21°C 70°F / 21°C 100% 29.71 in
(1006 mb)
S 3.5 mph
(S 6 kph)
- 5SM
00:55
Clear
Fog And Mist
72°F / 22°C 70°F / 21°C 94% 29.71 in
(1006 mb)
SE 3.5 mph
(SE 6 kph)
- 4SM
00:35
Clear
Fog And Mist
72°F / 22°C 70°F / 21°C 94% 29.74 in
(1007 mb)
SSE 3.5 mph
(SSE 6 kph)
- 5SM
00:15
Clear
73°F / 23°C 72°F / 22°C 94% 29.74 in
(1007 mb)
S 3.5 mph
(S 6 kph)
- 7SM
Time Weather Temperature Dewpoint Humidity Pressure Winds Precip Visibility


Weather for websites

WeatherForYou.com, LLC is not responsible for any damages or problems caused by this service. Current weather conditions are obtained from the closest station including government and personal stations which may have varying degrees of accuracy. Weather forecasts are derived from the NOAA NDFD. Like all things, this site belongs to Jesus Christ... He just trusts us to maintain it. If you have any questions or comments email webmaster@weatherforyou.com

Copyright © 2015, WeatherForYou.com LLC. All rights reserved.